Location: Newark
(25.1987°N, 100.3705°W)
Time: 03:41:45
(UTC+00:00)

LightSail 2 - Pass Details

Date: 10 April 2020
Orbit: 695 x 719 km, 24.0° (Epoch: 28 May)

Event Time Altitude Azimuth Distance (km) Brightness Sun altitude
Exits shadow 09:20:57 12° 91° (E) 2,024 7.9 -39.0°
Drops below altitude 10° 09:21:17 10° 90° (E) 2,148 8.1 -39.0°
Sets 09:23:44 0° 86° (E) 3,063 9.1 -38.5°
